カタログに戻る

STARLINK-34603

運用中通信VLEO
NORAD 65220·PAYLOAD·🇺🇸 United States

打ち上げ Aug 14, 2025 から Cape Canaveral Space Force Station

Loading…

次のパス (今後24時間)

TLE

最新Source: CelesTrak SupGP

元期: Sep 14, 2026, 21:00 UTC

1 65220C 25176Y   26257.87548611 -.00002376  00000+0 -70245-4 0  2576
2 65220  53.1592 349.8011 0001161  83.3398 309.9108 15.34368343    12

AllMySatでSTARLINK-34603をリアルタイム追跡

Download on the App Store